Stefansson Isl, Nunavut

7:06 PM MST on December 05, 2016 (GMT -0700)
Stefansson Island

Weather History for CXSE - May, 2013

Change the Weather History Date:

Monday, May 20, 2013

  Actual Average Record
Temperature  
Mean Temperature 18 °F -  
Max Temperature 28 °F - - ()
Min Temperature 8 °F - - ()
Degree Days  
Heating Degree Days 47    
Moisture  
Dew Point 13 °F    
Average Humidity 74    
Maximum Humidity 89    
Minimum Humidity 40    
Precipitation  
Precipitation 0.00 in - - ()
Sea Level Pressure  
Sea Level Pressure 30.41 in    
Wind  
Wind Speed 4 mph ()    
Max Wind Speed 9 mph    
Max Gust Speed -    
T = Trace of Precipitation, MM = Missing Value Source: Averaged Metar Reports

Daily Weather History Graph

Daily Weather History Graph

Search for Another Location

Airport or City:

Trip Planner

Search our weather history database for the weather conditions in past years. The results will help you decide how hot, cold, wet, or windy it might be!

Date:

Astronomy

Dec. 31, 1969 Rise Set
Actual Time Sun does not rise Sun does not rise
Civil Twilight Sun does not rise Sun does not rise
Nautical Twilight Sun does not rise Sun does not rise
Astronomical Twilight Sun does not rise Sun does not rise
Moon 4:16 PM MDT (5/20) 2:16 AM MDT (5/20)
Length of Visible Light 24h 00m
Length of Day
24h 00m
Waxing Gibbous, 75% of the Moon is Illuminated
May 20
Waxing Gibbous
May 24
Full
May 31
Last Quarter
Jun 8
New
Jun 16
First Quarter

Hourly Weather History & Observations

Time (MDT) Temp. Windchill Dew Point Humidity Pressure Visibility Wind Dir Wind Speed Gust Speed Precip Events Conditions
12:00 AM 19 °F - 14 °F 74% 30.35 in - West 2.3 mph - -  
12:00 AM 18.7 °F - 14.2 °F 83% 30.35 in - West 2.3 mph - N/A   Unknown
1:00 AM 9.3 °F 2.8 °F 6.1 °F 87% 30.35 in - SSW 3.5 mph - N/A   Unknown
2:00 AM 10.6 °F 2.5 °F 7.9 °F 89% 30.36 in - SSW 4.6 mph - N/A   Unknown
3:00 AM 10.2 °F 3.8 °F 6.1 °F 83% 30.36 in - SSE 3.5 mph - N/A   Unknown
4:00 AM 8.1 °F -0.5 °F 5.0 °F 87% 30.38 in - SSE 4.6 mph - N/A   Unknown
5:00 AM 9.0 °F 2.4 °F 3.9 °F 80% 30.38 in - SSE 3.5 mph - N/A   Unknown
6:00 AM 18 °F - 12 °F 68% 30.38 in - SW 2.3 mph - -  
6:00 AM 18.5 °F - 12.0 °F 76% 30.38 in - SW 2.3 mph - N/A   Unknown
7:00 AM 18.5 °F - 11.1 °F 73% - - North - - N/A   Unknown
8:00 AM 13.1 °F 7.1 °F 4.1 °F 67% 30.39 in - SE 3.5 mph - N/A   Unknown
10:00 AM 22.1 °F - 12.4 °F 66% 30.40 in - ESE 2.3 mph - N/A   Unknown
11:00 AM 26.6 °F - 13.1 °F 57% 30.41 in - ESE 1.2 mph - N/A   Unknown
12:00 PM 28 °F - 13 °F 40% 30.41 in - South 1.2 mph - -  
12:00 PM 27.9 °F - 13.3 °F 54% 30.41 in - South 1.2 mph - N/A   Unknown
2:00 PM 27.5 °F - 17.6 °F 66% 30.43 in - ESE 2.3 mph - N/A   Unknown
3:00 PM 27.0 °F 19.5 °F 19.2 °F 73% 30.43 in - SSW 6.9 mph - N/A   Unknown
4:00 PM 27.3 °F 19.1 °F 19.9 °F 74% 30.45 in - WSW 8.1 mph - N/A   Unknown
5:00 PM 26.2 °F 17.8 °F 19.9 °F 77% 30.45 in - SW 8.1 mph - N/A   Unknown
6:00 PM 27 °F - 20 °F 65% 30.46 in - SSW 6.9 mph - -  
6:00 PM 26.8 °F 19.3 °F 19.9 °F 75% 30.46 in - SSW 6.9 mph - N/A   Unknown
8:00 PM 22.8 °F 14.5 °F 18.5 °F 83% 30.47 in - SW 6.9 mph - N/A   Unknown
9:00 PM 21.2 °F 11.7 °F 17.4 °F 85% 30.48 in - SW 8.1 mph - N/A   Unknown
10:00 PM 18.7 °F 7.8 °F 14.9 °F 85% 30.49 in - WSW 9.2 mph - N/A   Unknown
11:00 PM 15.4 °F 3.8 °F 12.0 °F 86% 30.50 in - SW 9.2 mph - N/A   Unknown